[[{"header":{"parameterUnit":"m.s-1","parameterCategory":1,"la1":30.2991,"la2":30.254,"lo1":-89.0895,"lo2":-89.0444,"dy":0.0017,"dx":0.0017,"nx":28,"ny":28,"refTime":"2024-06-03T21:00:00:Z","depth":0,"parameterNumber":2,"parameterNumberName":"U-component_of_WINDS"},"data":[0,0,0,0,0,0,0,0,0,0,0,0,0,0,0,0,0,0,0,0,0,0,0,0,0,0,0,0,0,0,0,0,0,0,0,0,0,0,0,0,0,0,0,0,0,0,0,0,0,0,0,0,0,0,0,0,0,0,0.6851,0.6851,0,0.6881,0.6881,0.6882,0.6889,0.6888,0.6888,0.6888,0.692,0.6921,0.6922,0,0,0,0,0,0,0,0,0,0,0,0,0,0.6801,0.6802,0.6851,0.6851,0.6852,0.6881,0.6881,0.6882,0.6889,0.6888,0.6888,0.6888,0.692,0.6921,0.6922,0,0,0,0,0,0,0,0,0,0,0,0,0,0.6826,0.6802,0.6851,0.6859,0.686,0.6881,0.6881,0.6882,0.6889,0.6888,0.6888,0.6888,0.6919,0.6921,0.6923,0.6939,0,0,0.6927,0.6928,0,0,0,0,0,0,0,0,0.6825,0.6828,0.6857,0.6858,0.6859,0.6881,0.6876,0.6901,0.6889,0.6878,0.6888,0.6888,0.6907,0.691,0.6916,0.694,0.6941,0.6927,0.6928,0.6929,0.693,0,0,0,0,0,0,0,0.6823,0.6827,0.6863,0.6858,0.6859,0.6861,0.6864,0.688,0.6894,0.6879,0.6879,0.6883,0.6908,0.6915,0.6917,0.6942,0.6927,0.6929,0.693,0.693,0.6981,0.6981,0,0,0,0,0,0,0.6819,0.6825,0.6862,0.6864,0.6841,0.6862,0.6866,0.6874,0.6894,0.6897,0.6883,0.6883,0.6912,0.6915,0.6918,0.6939,0.6929,0.6931,0.6931,0.6981,0.6981,0.6981,0,0,0,0,0,0,0.6818,0.6823,0.6861,0.6845,0.685,0.6863,0.6873,0.6875,0.6882,0.6897,0.69,0.6887,0.6912,0.6916,0.6934,0.694,0.6931,0.6933,0.698,0.6981,0.6981,0.698,0,0,0,0,0,0,0.6817,0.6822,0.6828,0.6845,0.685,0.6875,0.6873,0.6876,0.6884,0.6885,0.6902,0.6904,0.6912,0.6931,0.6935,0.6942,0.6934,0.698,0.698,0.6981,0.698,0.6981,0.6982,0,0,0,0,0,0.6815,0.6827,0.6828,0.6833,0.6858,0.6875,0.6879,0.6887,0.6885,0.6891,0.6901,0.6904,0.6939,0.6933,0.6937,0.6945,0.6979,0.698,0.6981,0.6979,0.6981,0.6982,0,0,0,0,0,0,0.6811,0.6829,0.6831,0.6848,0.686,0.6877,0.6885,0.6888,0.6901,0.6901,0.6911,0.6915,0.6932,0.694,0.6933,0.6962,0.6959,0.6961,0.6956,0.6957,0.6958,0.6956,0.6935,0,0,0,0,0,0.6812,0.6825,0.684,0.6854,0.6859,0.6871,0.6879,0.6884,0.6897,0.6902,0.6913,0.6926,0.694,0.6949,0.6962,0.6981,0.6985,0.6988,0.6989,0.699,0.6992,0.7002,0.7004,0.6984,0.6984,0.6984,0,0,0.6815,0.6826,0.6833,0.6853,0.6863,0.6876,0.6875,0.6889,0.6899,0.6905,0.6922,0.693,0.6945,0.6963,0.6972,0.6971,0.6998,0.6991,0.6991,0.6993,0.7004,0.7005,0.7007,0.6985,0.6985,0.6985,0,0,0.6827,0.6836,0.6849,0.6859,0.6873,0.6881,0.6884,0.69,0.6906,0.6923,0.6928,0.694,0.6963,0.6974,0.6982,0.6997,0.7001,0.7002,0.7007,0.7017,0.7019,0.702,0.7027,0.7029,0.7003,0.7003,0.7003,0,0.6828,0.6848,0.6855,0.6869,0.6878,0.6883,0.6896,0.6905,0.6924,0.693,0.6928,0.6958,0.6968,0.6989,0.6993,0.6999,0.7004,0.7,0.7018,0.7019,0.7021,0.7027,0.7029,0.7003,0.7003,0.7003,0.7003,0,0.6849,0.6862,0.6871,0.6889,0.6898,0.6912,0.6922,0.6931,0.6935,0.6943,0.6961,0.6974,0.699,0.6995,0.7,0.7017,0.7016,0.7016,0.7013,0.7023,0.7029,0.7031,0.7003,0.7003,0.7003,0.7003,0,0,0.686,0.6881,0.6884,0.6893,0.6909,0.692,0.6934,0.6949,0.6957,0.697,0.6982,0.7002,0.7002,0.7011,0.7017,0.7026,0.7039,0.7025,0.7026,0.7028,0.7059,0.706,0.7063,0.704,0.7041,0.7041,0.7059,0,0.6874,0.6899,0.6906,0.6927,0.694,0.6945,0.6957,0.6969,0.6977,0.6989,0.6997,0.7012,0.701,0.7016,0.7025,0.7035,0.7045,0.7034,0.7053,0.7054,0.705,0.7066,0.7067,0.7082,0.7061,0.7061,0.7062,0,0.6895,0.6907,0.6929,0.6945,0.695,0.6961,0.6976,0.6988,0.7001,0.7006,0.7017,0.7022,0.7037,0.7032,0.7054,0.7046,0.7054,0.706,0.7061,0.7064,0.7059,0.707,0.7088,0.709,0.7065,0.7065,0.7065,0,0.6902,0.6924,0.694,0.6947,0.6965,0.6973,0.6981,0.6994,0.7003,0.7016,0.7022,0.7037,0.7045,0.7057,0.7066,0.7062,0.7087,0.7083,0.7092,0.7092,0.7098,0.7098,0.7118,0.7101,0.7101,0.7101,0.7101,0,0.6918,0.6931,0.6944,0.6954,0.697,0.6978,0.6993,0.7001,0.7013,0.7025,0.703,0.7042,0.7052,0.7065,0.7072,0.7089,0.7093,0.7098,0.71,0.7098,0.7097,0.7104,0.7104,0.7102,0.7102,0.7102,0.7102,0,0.6928,0.6937,0.6956,0.6971,0.6975,0.6986,0.6999,0.701,0.7017,0.7033,0.7037,0.7049,0.7065,0.7074,0.7094,0.7099,0.7118,0.7119,0.7114,0.7115,0.7124,0.7123,0.715,0.7155,0.7134,0.7134,0.7134,0,0.6939,0.6949,0.6966,0.6974,0.6982,0.6995,0.7005,0.7013,0.7023,0.7039,0.7047,0.7063,0.7076,0.7101,0.7112,0.7127,0.7129,0.7137,0.7132,0.713,0.7131,0.7131,0.7132,0.7139,0.7139,0.7139,0.7139,0,0.6956,0.696,0.6973,0.6988,0.6999,0.7011,0.7023,0.7029,0.704,0.705,0.7066,0.7076,0.7096,0.7112,0.7128,0.7137,0.714,0.7141,0.7144,0.7143,0.714,0.7143,0.7118,0.7141,0.714,0.714,0.714,0.714,0.6968,0.6978,0.6991,0.7006,0.7015,0.7026,0.7037,0.7046,0.7059,0.7076,0.708,0.7097,0.7111,0.7133,0.7141,0.7155,0.7154,0.7158,0.716,0.7161,0.7162,0.7137,0.7158,0.7158,0.7158,0.7158,0.7158,0,0.6987,0.6995,0.7008,0.7025,0.7037,0.7038,0.7051,0.7061,0.7076,0.7088,0.7101,0.7119,0.7134,0.7146,0.7162,0.7171,0.7173,0.7175,0.7175,0.7177,0.7161,0.7157,0.7173,0.7173,0.7173,0.7173,0.7173,0.7173,0.6998,0.7015,0.7021,0.7043,0.7052,0.7068,0.7076,0.7086,0.7096,0.7116,0.7129,0.7136,0.7149,0.7166,0.718,0.7183,0.7189,0.7191,0.7195,0.718,0.7178,0.7177,0.7173,0.7192,0.7192,0.721,0.721,0.721]},{"header":{"parameterUnit":"m.s-1","parameterCategory":1,"la1":30.2991,"la2":30.254,"lo1":-89.0895,"lo2":-89.0444,"dy":0.0017,"dx":0.0017,"nx":28,"ny":28,"refTime":"2024-06-03T21:00:00:Z","depth":0,"parameterNumber":3,"parameterNumberName":"V-component_of_WINDS"},"data":[0,0,0,0,0,0,0,0,0,0,0,0,0,0,0,0,0,0,0,0,0,0,0,0,0,0,0,0,0,0,0,0,0,0,0,0,0,0,0,0,0,0,0,0,0,0,0,0,0,0,0,0,0,0,0,0,0,0,4.0609,4.0608,0,4.0577,4.0577,4.0576,4.0564,4.0565,4.0565,4.0565,4.0528,4.0527,4.0526,0,0,0,0,0,0,0,0,0,0,0,0,0,4.0655,4.0654,4.0609,4.0608,4.0608,4.0577,4.0577,4.0576,4.0564,4.0565,4.0565,4.0565,4.0528,4.0527,4.0526,0,0,0,0,0,0,0,0,0,0,0,0,0,4.063,4.0654,4.0609,4.0598,4.0597,4.0577,4.0577,4.0576,4.0564,4.0565,4.0565,4.0565,4.0529,4.0527,4.0525,4.0512,0,0,4.052,4.052,0,0,0,0,0,0,0,0,4.0632,4.0629,4.06,4.0599,4.0598,4.0575,4.0579,4.0554,4.0564,4.0577,4.0565,4.0565,4.0543,4.054,4.0534,4.051,4.0508,4.052,4.0519,4.0518,4.0518,0,0,0,0,0,0,0,4.0633,4.063,4.0596,4.06,4.0598,4.0594,4.0591,4.0575,4.0559,4.0576,4.0575,4.0571,4.0542,4.0535,4.0533,4.0508,4.052,4.0519,4.0518,4.0517,4.0472,4.0472,0,0,0,0,0,0,4.0637,4.0631,4.0597,4.0595,4.0616,4.0593,4.0589,4.0582,4.0559,4.0556,4.0571,4.0571,4.0538,4.0535,4.0531,4.0514,4.0518,4.0517,4.0516,4.0472,4.0472,4.0471,0,0,0,0,0,0,4.0638,4.0634,4.0598,4.0613,4.0608,4.0592,4.0584,4.0581,4.0574,4.0556,4.0553,4.0567,4.0538,4.0534,4.0517,4.0513,4.0516,4.0515,4.0472,4.0472,4.0472,4.048,0,0,0,0,0,0,4.064,4.0635,4.063,4.0613,4.0607,4.0586,4.0584,4.0581,4.0572,4.0571,4.0551,4.0548,4.0538,4.052,4.0516,4.0511,4.0513,4.0472,4.0472,4.0472,4.048,4.048,4.048,0,0,0,0,0,4.0642,4.0633,4.063,4.0626,4.0602,4.0585,4.0582,4.0572,4.0572,4.0567,4.0555,4.0549,4.0514,4.0518,4.0513,4.0508,4.0473,4.0472,4.0472,4.048,4.048,4.048,0,0,0,0,0,0,4.0648,4.063,4.0627,4.0613,4.0601,4.0584,4.0577,4.0572,4.0558,4.0558,4.0544,4.054,4.0524,4.0514,4.0519,4.0494,4.0493,4.0491,4.0501,4.0501,4.0501,4.0503,4.0512,0,0,0,0,0,4.0649,4.0638,4.0622,4.0611,4.0606,4.0592,4.0585,4.0578,4.0565,4.0559,4.0546,4.0532,4.0518,4.0509,4.0495,4.0479,4.0474,4.0473,4.0473,4.0473,4.0471,4.0462,4.0462,4.047,4.047,4.047,0,0,4.0648,4.0637,4.0631,4.0612,4.0602,4.0591,4.0588,4.0576,4.0567,4.0556,4.0541,4.0531,4.0514,4.0498,4.049,4.0489,4.0468,4.0472,4.0472,4.0471,4.0462,4.0461,4.046,4.0469,4.047,4.047,0,0,4.0641,4.0632,4.0622,4.0613,4.0599,4.059,4.0588,4.0571,4.0565,4.0549,4.0541,4.053,4.0506,4.0494,4.0485,4.0476,4.047,4.0471,4.0471,4.0463,4.0462,4.0461,4.0458,4.0457,4.047,4.047,4.047,0,4.0642,4.0626,4.0617,4.0606,4.0598,4.059,4.058,4.057,4.0551,4.0545,4.0545,4.0516,4.0503,4.0485,4.0483,4.0476,4.0472,4.0473,4.0463,4.0462,4.0461,4.0458,4.0457,4.0471,4.0471,4.0471,4.0471,0,4.0628,4.0617,4.0611,4.0595,4.0586,4.0575,4.0563,4.0555,4.0549,4.0541,4.0524,4.051,4.0494,4.0489,4.0482,4.0469,4.0469,4.0466,4.0465,4.0461,4.0458,4.0456,4.0471,4.0471,4.0471,4.0471,0,0,4.0624,4.0605,4.0602,4.0595,4.0579,4.057,4.0558,4.0544,4.0537,4.0524,4.0514,4.0495,4.0492,4.0482,4.0474,4.0467,4.0461,4.0465,4.0464,4.0464,4.0445,4.0448,4.0446,4.0457,4.0456,4.0456,4.0447,0,4.0615,4.0596,4.0588,4.0572,4.0562,4.0555,4.0545,4.0533,4.0525,4.0514,4.0504,4.049,4.0488,4.0482,4.0475,4.0463,4.0456,4.0464,4.0446,4.0445,4.045,4.0445,4.0447,4.0439,4.0445,4.0445,4.0445,0,4.0603,4.0592,4.0576,4.0562,4.0557,4.0549,4.0535,4.0525,4.0511,4.0506,4.0495,4.0488,4.0475,4.0475,4.0456,4.0462,4.0454,4.0447,4.0447,4.0444,4.0445,4.0442,4.0436,4.0435,4.0443,4.0443,4.0443,0,4.0602,4.0583,4.0571,4.0565,4.0549,4.0543,4.0535,4.0522,4.0514,4.0502,4.0497,4.0482,4.0474,4.0463,4.0451,4.0453,4.0434,4.0433,4.0428,4.0428,4.0424,4.0424,4.0416,4.0419,4.0419,4.0419,4.0419,0,4.0593,4.0583,4.0571,4.0563,4.0552,4.0542,4.0531,4.0523,4.0512,4.0502,4.0494,4.0484,4.047,4.0459,4.045,4.0436,4.0432,4.0426,4.0424,4.0427,4.0428,4.0421,4.0422,4.0419,4.0419,4.0419,4.0419,0,4.0589,4.0581,4.0567,4.0554,4.055,4.0542,4.053,4.0522,4.0513,4.0501,4.0497,4.0484,4.047,4.0458,4.0439,4.0433,4.0418,4.0416,4.0424,4.0422,4.0418,4.0419,4.0405,4.0403,4.0408,4.0408,4.0408,0,4.0584,4.0577,4.0563,4.0557,4.055,4.0539,4.0532,4.0522,4.0514,4.0499,4.0493,4.0479,4.0468,4.0446,4.0433,4.0419,4.0415,4.0412,4.0413,4.0417,4.0415,4.0416,4.0415,4.0412,4.0412,4.0412,4.0412,0,4.0576,4.0573,4.0563,4.0552,4.0543,4.0534,4.0523,4.0518,4.0507,4.0498,4.0485,4.0476,4.0458,4.0444,4.0429,4.0419,4.0413,4.0412,4.041,4.0413,4.0418,4.0415,4.0423,4.0412,4.0412,4.0412,4.0412,4.0412,4.0571,4.0565,4.0555,4.0544,4.0536,4.0527,4.0519,4.0511,4.05,4.0486,4.048,4.0467,4.0454,4.0433,4.0424,4.0412,4.0411,4.0408,4.0408,4.0407,4.0408,4.042,4.0409,4.0409,4.0409,4.0409,4.0409,0,4.0563,4.0556,4.0547,4.0534,4.0526,4.0523,4.0512,4.0504,4.0493,4.0482,4.0472,4.0457,4.0443,4.0431,4.0416,4.041,4.0407,4.0406,4.0406,4.0404,4.0409,4.0413,4.0409,4.0409,4.0409,4.0409,4.0409,4.0409,4.0558,4.0547,4.0542,4.0526,4.0519,4.0508,4.0502,4.0493,4.0485,4.0469,4.0458,4.0451,4.0439,4.0424,4.0412,4.0408,4.0403,4.0404,4.0399,4.0404,4.0404,4.0404,4.0407,4.0403,4.0403,4.0395,4.0395,4.0395]}]]